IV3IYL-13 Weather Reports


time (UTC)temp
C
wind
direction
speed
KPH
gust
KPH
rain 1hr
cm
rain 24hr
cm
rain mn
cm
humidity
%
barometer
mb
20260507232553 13 0.0 0.0 0.00 0.00 0.00 10 1016.5
20260507231552 13 0.0 0.0 0.00 0.00 0.00 10 1016.5
20260507230553 13 0.0 0.0 0.00 0.00 0.00 10 1016.4
20260507225552 13 0.0 0.0 0.00 0.00 0.00 10 1016.4
20260507224552 13 0.0 0.0 0.00 0.00 0.00 10 1016.2
20260507223558 13 0.0 0.0 0.00 0.00 0.00 10 1016.3
20260507222552 13 0.0 0.0 0.00 0.00 0.00 10 1016.2
20260507221553 13 0.0 0.0 0.00 0.00 0.00 10 1016.2
20260507220552 13 0.0 0.0 0.00 0.00 0.00 10 1016.1
20260507215553 13 0.0 0.0 0.00 0.00 0.00 10 1016.3
20260507214553 13 0.0 0.0 0.00 0.00 0.00 10 1016.2
20260507213552 13 0.0 0.0 0.00 0.00 0.00 10 1016.2
20260507212552 13 0.0 0.0 0.00 0.00 0.00 10 1016.1
20260507211552 13 0.0 0.0 0.00 0.00 0.00 10 1016.0
20260507210552 14 0.0 0.0 0.00 0.00 0.00 10 1015.9
20260507205552 13 0.0 0.0 0.00 0.00 0.00 10 1015.9
20260507204552 14 0.0 0.0 0.00 0.00 0.00 10 1015.8
20260507203608 14 0.0 0.0 0.00 0.00 0.00 10 1015.7
20260507202552 14 0.0 0.0 0.00 0.00 0.00 10 1015.7
20260507201556 14 0.0 0.0 0.00 0.00 0.00 10 1015.6
20260507200552 15 0.0 0.0 0.00 0.00 0.00 10 1015.4
20260507195552 15 0.0 0.0 0.00 0.00 0.00 10 1015.4
20260507194552 15 0.0 0.0 0.00 0.00 0.00 10 1015.4
20260507193552 15 0.0 0.0 0.00 0.00 0.00 10 1015.4
20260507192552 15 0.0 0.0 0.00 0.00 0.00 10 1015.2
20260507191607 15 0.0 0.0 0.00 0.00 0.00 10 1015.0
20260507190552 16 0.0 0.0 0.00 0.00 0.00 10 1014.9
20260507185552 16 0.0 0.0 0.00 0.00 0.00 10 1014.9
20260507184552 16 0.0 0.0 0.00 0.00 0.00 99 1014.7
20260507183552 16 0.0 0.0 0.00 0.00 0.00 93 1014.5
20260507182552 16 0.0 0.0 0.00 0.00 0.00 92 1014.4
20260507181552 16 0.0 0.0 0.00 0.00 0.00 93 1014.3
20260507180622 16 0.0 0.0 0.00 0.00 0.00 94 1014.2
20260507175622 16 0.0 0.0 0.00 0.00 0.00 92 1014.0
20260507174552 16 0.0 0.0 0.00 0.00 0.00 92 1014.0
20260507173551 17 0.0 0.0 0.00 0.00 0.00 91 1013.9
20260507172552 17 0.0 0.0 0.00 0.00 0.00 94 1013.9
20260507171552 17 0.0 0.0 0.00 0.00 0.00 91 1013.9
20260507170602 17 0.0 0.0 0.00 0.00 0.00 87 1013.9
20260507165607 17 0.0 0.0 0.00 0.00 0.00 85 1013.7
20260507164606 18 0.0 0.0 0.00 0.00 0.00 85 1013.7
20260507163551 18 0.0 0.0 0.00 0.00 0.00 83 1013.5
20260507162606 19 0.0 0.0 0.00 0.00 0.00 80 1013.6
20260507161551 20 0.0 0.0 0.00 0.00 0.00 75 1013.4
20260507160551 20 0.0 0.0 0.00 0.00 0.00 70 1013.3
20260507155551 20 0.0 0.0 0.00 0.00 0.00 71 1013.3
20260507154551 20 0.0 0.0 0.00 0.00 0.00 66 1013.3
20260507153551 20 0.0 0.0 0.00 0.00 0.00 71 1013.1
20260507152551 20 0.0 0.0 0.00 0.00 0.00 72 1013.1
20260507151551 20 0.0 0.0 0.00 0.00 0.00 74 1012.8
20260507150606 19 0.0 0.0 0.00 0.00 0.00 88 1012.8
20260507145551 18 0.0 0.0 0.00 0.00 0.00 89 1012.7
20260507144551 18 0.0 0.0 0.00 0.00 0.00 85 1012.3
20260507143551 18 0.0 0.0 0.00 0.00 0.00 66 1012.0
20260507142551 18 0.0 0.0 0.00 0.00 0.00 72 1012.2
20260507141551 19 0.0 0.0 0.00 0.00 0.00 84 1012.1
20260507140551 20 0.0 0.0 0.00 0.00 0.00 77 1012.1
20260507135606 20 0.0 0.0 0.00 0.00 0.00 76 1012.1
20260507134550 20 0.0 0.0 0.00 0.00 0.00 86 1012.1
20260507133551 20 0.0 0.0 0.00 0.00 0.00 82 1012.1
20260507132551 20 0.0 0.0 0.00 0.00 0.00 81 1012.2
20260507131551 20 0.0 0.0 0.00 0.00 0.00 76 1012.3
20260507130606 20 0.0 0.0 0.00 0.00 0.00 76 1012.4
20260507125551 20 0.0 0.0 0.00 0.00 0.00 79 1012.4
20260507124551 20 0.0 0.0 0.00 0.00 0.00 73 1012.3
20260507123551 20 0.0 0.0 0.00 0.00 0.00 73 1012.4
20260507122550 20 0.0 0.0 0.00 0.00 0.00 70 1012.3
20260507121550 19 0.0 0.0 0.00 0.00 0.00 73 1012.4
20260507120551 19 0.0 0.0 0.00 0.00 0.00 75 1012.5
20260507115621 20 0.0 0.0 0.00 0.00 0.00 73 1012.6
20260507114606 18 0.0 0.0 0.00 0.00 0.00 83 1012.7
20260507113550 18 0.0 0.0 0.00 0.00 0.00 82 1012.8
20260507112551 19 0.0 0.0 0.00 0.00 0.00 80 1012.7
20260507111550 19 0.0 0.0 0.00 0.00 0.00 79 1012.8
20260507110550 18 0.0 0.0 0.00 0.00 0.00 77 1012.8
20260507105550 18 0.0 0.0 0.00 0.00 0.00 90 1013.0
20260507104550 18 0.0 0.0 0.00 0.00 0.00 92 1013.0
20260507103550 18 0.0 0.0 0.00 0.00 0.00 97 1013.1
20260507102550 18 0.0 0.0 0.00 0.00 0.00 95 1013.4
20260507101550 19 0.0 0.0 0.00 0.00 0.00 92 1013.2
20260507100550 18 0.0 0.0 0.00 0.00 0.00 94 1013.3
20260507095605 18 0.0 0.0 0.00 0.00 0.00 10 1013.3
20260507094550 18 0.0 0.0 0.00 0.00 0.00 10 1013.3
20260507093550 18 0.0 0.0 0.00 0.00 0.00 10 1013.3
20260507092550 18 0.0 0.0 0.00 0.00 0.00 10 1013.3
20260507091550 17 0.0 0.0 0.00 0.00 0.00 10 1013.2
20260507090550 17 0.0 0.0 0.00 0.00 0.00 10 1013.2
20260507085605 17 0.0 0.0 0.00 0.00 0.00 10 1013.3
20260507084550 17 0.0 0.0 0.00 0.00 0.00 10 1013.2
20260507083550 17 0.0 0.0 0.00 0.00 0.00 10 1013.2
20260507082550 16 0.0 0.0 0.00 0.00 0.00 10 1013.1
20260507081550 16 0.0 0.0 0.00 0.00 0.00 10 1013.2
20260507080550 16 0.0 0.0 0.00 0.00 0.00 10 1013.1
20260507075605 16 0.0 0.0 0.00 0.00 0.00 10 1013.1
20260507074550 15 0.0 0.0 0.00 0.00 0.00 10 1013.1
20260507073550 15 0.0 0.0 0.00 0.00 0.00 10 1013.0
20260507072550 15 0.0 0.0 0.00 0.00 0.00 10 1013.0
20260507071549 15 0.0 0.0 0.00 0.00 0.00 10 1013.0
20260507070549 15 0.0 0.0 0.00 0.00 0.00 10 1013.0
20260507065549 15 0.0 0.0 0.00 0.00 0.00 10 1013.0
20260507064549 15 0.0 0.0 0.00 0.00 0.00 10 1013.0
20260507063549 15 0.0 0.0 0.00 0.00 0.00 10 1013.0
20260507062605 15 0.0 0.0 0.00 0.00 0.00 10 1012.9
20260507061549 14 0.0 0.0 0.00 0.00 0.00 10 1012.9
20260507060549 14 0.0 0.0 0.00 0.00 0.00 10 1012.9
20260507055549 14 0.0 0.0 0.00 0.00 0.00 10 1012.7
20260507054549 13 0.0 0.0 0.00 0.00 0.00 10 1012.5
20260507053549 13 0.0 0.0 0.00 0.00 0.00 10 1012.4
20260507052549 13 0.0 0.0 0.00 0.00 0.00 10 1012.2
20260507051549 12 0.0 0.0 0.00 0.00 0.00 10 1012.2
20260507050549 12 0.0 0.0 0.00 0.00 0.00 10 1012.1
20260507045549 12 0.0 0.0 0.00 0.00 0.00 10 1012.1
20260507044549 12 0.0 0.0 0.00 0.00 0.00 10 1011.9
20260507043549 12 0.0 0.0 0.00 0.00 0.00 10 1011.8
20260507042549 12 0.0 0.0 0.00 0.00 0.00 10 1011.8
20260507041604 12 0.0 0.0 0.00 0.00 0.00 10 1011.7
20260507040549 12 0.0 0.0 0.00 0.00 0.00 10 1011.5
20260507035549 12 0.0 0.0 0.00 0.00 0.00 10 1011.5
20260507034549 12 0.0 0.0 0.00 0.00 0.00 10 1011.6
20260507033549 12 0.0 0.0 0.00 0.00 0.00 10 1011.5
20260507032549 12 0.0 0.0 0.00 0.00 0.00 10 1011.6
20260507031549 12 0.0 0.0 0.00 0.00 0.00 10 1011.5
20260507030549 13 0.0 0.0 0.00 0.00 0.00 10 1011.6
20260507025609 13 0.0 0.0 0.00 0.00 0.00 10 1011.5
20260507024549 13 0.0 0.0 0.00 0.00 0.00 10 1011.7
20260507023604 13 0.0 0.0 0.00 0.00 0.00 10 1011.5
20260507022548 13 0.0 0.0 0.00 0.00 0.00 10 1011.5
20260507021549 13 0.0 0.0 0.00 0.00 0.00 10 1011.5
20260507020549 13 0.0 0.0 0.00 0.00 0.00 10 1011.4
20260507015548 14 0.0 0.0 0.00 0.00 0.00 10 1011.5
20260507014549 14 0.0 0.0 0.00 0.00 0.00 10 1011.5
20260507013549 13 0.0 0.0 0.00 0.00 0.00 10 1011.5
20260507012548 13 0.0 0.0 0.00 0.00 0.00 10 1011.5
20260507011548 13 0.0 0.0 0.00 0.00 0.00 10 1011.5
20260507010549 13 0.0 0.0 0.00 0.00 0.00 10 1011.5
20260507005548 13 0.0 0.0 0.00 0.00 0.00 10 1011.5
20260507004549 13 0.0 0.0 0.00 0.00 0.00 10 1011.5
20260507003548 13 0.0 0.0 0.00 0.00 0.00 10 1011.4
20260507002603 14 0.0 0.0 0.00 0.00 0.00 10 1011.6
20260507001548 13 0.0 0.0 0.00 0.00 0.00 10 1011.6
20260507000548 13 0.0 0.0 0.00 0.00 0.00 10 1011.5
20260506235548 13 0.0 0.0 0.00 0.00 0.00 10 1011.6
20260506234548 14 0.0 0.0 0.00 0.00 0.00 10 1011.6
20260506233548 14 0.0 0.0 0.00 0.00 0.00 10 1011.7